Location: Rometta
(44.2000°N, 10.0500°E)
Time: 22:55:54
(UTC+00:00)

Meteor 2-8 Rocket - Pass Details

Date: 20 January 2021
Orbit: 937 x 957 km, 82.5° (Epoch: 04 March)

Event Time Altitude Azimuth Distance (km) Brightness Sun altitude
Rises 18:15:02 0° 353° (N) 3,614 7.5 -21.5°
Reaches altitude 10° 18:17:33 10° 356° (N) 2,667 6.8 -22.0°
Maximum altitude 18:23:38 70° 79° (E) 1,006 4.3 -23.0°
Drops below altitude 10° 18:29:42 10° 164° (SSE) 2,662 6.7 -24.1°
Sets 18:32:12 0° 166° (SSE) 3,606 7.4 -24.6°
